Overview Statistics Trail Chart Weather Telemetry Raw packets
 

This is the latest recevied weather packets stored in our database for station/object LU3GHF-13. If no packets are shown the sender has not sent any weather packets the latest 10 day(s).

<< 41 42 43 44 45 46 47 >>
Time Temp. Humidity Pressure Rain* Wind** Luminosity Snow
1787924031 20.56° C 92% 998.2 hPa - - - -
1787923384 20° C 95% 998.2 hPa - - - -
1787922746 20.56° C 93% 998 hPa - - - -
1787922105 21.11° C 93% 997.7 hPa - - - -
1787921456 21.11° C 94% 997.4 hPa - - - -
1787920842 20.56° C 95% 997.2 hPa - - - -
1787920234 21.11° C 95% 996.9 hPa - - - -
1787919595 21.67° C 95% 996.6 hPa - - - -
1787918941 21.67° C 95% 996.4 hPa - - - -
1787918338 21.67° C 95% 996.1 hPa - - - -
1787917682 21.67° C 96% 995.9 hPa - - - -
1787917064 21.67° C 94% 995.8 hPa - - - -
1787916456 21.67° C 94% 995.4 hPa - - - -
1787915852 22.22° C 93% 995.2 hPa - - - -
1787915217 22.22° C 93% 995.2 hPa - - - -
1787914607 22.78° C 92% 994.9 hPa - - - -
1787913996 22.78° C 92% 994.7 hPa - - - -
1787913352 22.78° C 93% 994.6 hPa - - - -
1787912709 22.22° C 94% 994.4 hPa - - - -
1787912107 22.22° C 94% 994.3 hPa - - - -
1787911505 22.78° C 94% 994.2 hPa - - - -
1787910871 23.33° C 93% 993.8 hPa - - - -
1787910259 23.33° C 92% 993.2 hPa - - - -
1787909610 23.33° C 92% 992.9 hPa - - - -
1787909005 23.33° C 92% 992.9 hPa - - - -

* Rain since midnight (hover to see other rain measurements)
** Current wind speed in m/s (hover to see current wind gust speed)